Wetbulb
62.84 63.34 64.02 65.94 66.57 66.63 66.47 67.13 67.57 67.74 67.79 67.56 67.41 67.10 66.89 67.29 66.91 66.78 66.36 65.93 65.59 65.83 66.53 65.08 63.97 63.93 63.64 61.89 61.15 59.77 54.74 56.66
61.16 61.15 61.61 62.44 63.91 65.32 65.54 66.00 66.39 66.91 66.81 66.39 65.83 66.22 66.47 66.03 65.78 65.84 65.44 65.15 65.31 65.03 65.34 63.99 62.87 62.54 62.00 60.55 58.94 56.69 53.01 54.69
60.22 60.30 60.82 60.88 64.07 64.63 65.23 66.24 65.91 65.62 65.35 65.20 62.99 62.34 62.16 60.64 63.71 64.25 64.24 63.68 64.34 63.69 62.63 62.13 61.27 60.59 59.19 57.22 54.57 51.01 51.73 52.59
59.11 59.12 58.88 59.19 64.66 63.07 61.07 62.37 61.96 61.77 61.88 61.01 61.01 60.80 60.07 61.33 62.92 63.90 63.52 63.17 61.84 60.89 59.37 57.89 53.68 49.61 49.83 51.82 48.00 48.18 48.52 51.29
59.42 58.81 59.21 59.47 63.04 61.32 59.91 59.68 59.90 60.30 60.38 59.67 59.67 60.53 59.52 57.40 56.57 55.14 53.46 55.29 51.85 51.77 50.94 50.35 49.84 49.15 48.08 46.98 46.28 45.83 45.57 47.26
58.26 59.34 61.78 62.12 61.16 59.63 59.02 58.38 58.59 58.79 58.96 59.60 59.20 57.64 56.18 54.14 52.96 51.96 50.87 50.36 49.33 49.28 48.81 48.80 48.52 48.58 47.50 46.12 45.12 44.25 44.18 44.92
59.18 60.43 61.64 61.65 60.06 58.24 57.62 57.34 58.63 58.51 59.09 60.21 58.55 56.02 53.63 51.66 50.60 50.21 49.57 49.27 48.34 47.85 47.78 47.41 47.48 47.35 46.10 45.21 43.71 43.15 43.06 43.31
59.01 59.46 61.63 61.16 58.60 56.93 56.99 58.28 60.10 60.40 59.88 58.89 56.99 54.19 51.69 50.27 49.48 49.13 48.64 48.38 47.61 47.24 47.00 46.57 45.98 45.93 44.61 43.98 42.51 41.80 41.47 41.50
58.11 59.27 61.24 60.16 58.36 57.22 57.94 60.29 60.66 59.51 58.90 57.76 55.74 53.24 51.71 49.40 49.11 48.73 48.14 47.58 47.40 47.39 47.06 46.70 45.95 44.38 42.84 42.22 41.46 40.97 40.64 40.63
59.51 61.31 59.94 58.74 57.52 57.22 58.43 59.07 58.51 57.91 57.49 56.71 54.12 52.74 50.84 49.45 48.45 48.18 47.78 47.64 47.24 46.64 46.09 45.33 43.61 41.83 40.25 40.12 40.00 39.93 39.58 39.88
58.29 59.46 58.20 57.60 56.48 57.25 57.65 57.07 56.33 55.43 54.36 53.33 52.60 51.63 50.36 48.46 48.20 47.71 47.54 46.52 45.85 46.24 44.90 44.49 41.98 41.31 40.73 38.80 37.94 37.53 38.16 39.46
58.80 58.26 57.18 56.52 55.91 54.20 53.22 52.27 51.64 51.67 51.19 51.27 51.73 50.69 49.65 48.60 47.66 46.85 46.13 44.79 44.23 42.83 41.43 41.55 41.60 40.71 41.25 38.40 36.57 36.67 36.66 36.17
57.75 56.58 55.37 56.39 53.92 51.57 51.25 50.33 50.31 48.89 49.02 49.26 50.47 49.30 48.35 46.85 45.62 44.80 44.11 43.52 42.80 42.64 40.92 39.78 39.14 38.49 37.72 36.55 36.48 36.29 35.26 35.19
57.14 56.53 55.86 56.10 55.42 50.43 50.46 48.98 47.57 47.37 47.53 47.67 48.33 47.26 46.43 46.11 43.19 42.14 42.49 40.90 40.18 41.14 40.53 39.65 38.37 37.31 36.70 35.23 33.24 35.28 35.30 34.91
57.65 56.56 56.35 55.81 53.59 49.32 47.57 47.91 47.15 46.18 45.35 45.09 44.41 44.32 42.64 41.25 40.79 40.17 39.56 39.37 38.57 39.37 40.10 39.74 37.44 37.50 36.51 36.10 32.69 31.14 31.37 33.83
57.99 56.98 56.55 55.71 52.21 49.83 49.50 48.44 46.55 45.79 45.16 41.39 39.88 41.48 41.07 41.11 40.97 40.80 40.51 40.30 40.42 41.42 41.77 39.88 38.70 36.06 36.29 36.40 34.36 33.87 31.51 29.72
57.92 56.68 56.43 55.88 52.97 51.50 49.59 47.57 46.61 44.96 41.29 38.72 39.57 39.86 40.60 41.07 40.90 41.64 41.20 40.96 41.03 40.83 40.36 38.61 38.22 36.33 35.44 35.08 33.62 32.27 31.48 28.97
57.01 56.04 56.14 55.74 53.84 51.77 50.02 49.08 45.98 43.16 39.88 38.93 38.59 38.50 39.31 40.08 40.71 41.17 41.36 41.61 42.13 41.53 40.80 38.26 37.72 37.28 36.57 36.92 34.25 32.34 30.76 28.46
57.24 56.68 55.23 55.83 54.74 52.42 50.67 49.06 47.76 45.85 41.78 41.55 39.34 38.42 38.17 38.27 39.30 40.84 41.71 42.95 42.00 41.89 40.35 38.38 37.24 36.53 36.54 36.19 34.60 33.65 32.50 30.91
57.25 56.99 56.61 56.07 56.26 54.19 51.62 50.26 48.82 47.10 43.87 42.07 40.64 39.91 39.12 38.77 40.86 42.77 43.26 43.80 42.62 41.92 39.99 38.89 38.56 37.78 36.02 35.38 34.52 34.18 33.30 32.21
MSLP
1016.96 1017.72 1018.00 1017.91 1017.73 1018.12 1019.01 1019.03 1019.57 1019.81 1020.31 1020.61 1020.87 1021.12 1021.28 1021.32 1021.55 1022.04 1022.11 1022.01 1021.89 1022.06 1022.25 1022.50 1022.52 1022.58 1022.89 1023.08 1023.18 1023.26 1023.34 1023.35
1017.57 1017.81 1018.93 1019.09 1018.88 1019.06 1019.10 1019.60 1019.87 1020.19 1020.52 1020.93 1021.20 1021.49 1021.60 1021.79 1021.85 1022.28 1022.17 1022.40 1022.16 1022.50 1022.58 1022.80 1023.03 1023.11 1023.35 1023.49 1023.46 1023.61 1023.76 1023.69
1018.19 1018.96 1019.73 1019.56 1019.25 1019.47 1019.87 1020.25 1020.11 1020.24 1020.76 1021.30 1021.45 1021.76 1021.94 1022.00 1022.18 1022.27 1022.49 1022.46 1022.48 1022.80 1023.04 1023.18 1023.49 1023.57 1023.79 1023.98 1024.14 1024.34 1024.28 1024.33
1018.31 1019.25 1020.08 1019.79 1019.76 1020.31 1020.41 1020.01 1020.04 1020.61 1020.97 1021.43 1021.78 1021.94 1022.05 1022.39 1022.52 1022.64 1022.72 1022.72 1023.05 1023.43 1023.42 1023.63 1023.78 1024.12 1024.35 1024.49 1024.77 1024.86 1024.92 1024.90
1019.25 1019.66 1020.09 1019.91 1019.69 1019.73 1019.66 1019.85 1020.54 1021.00 1021.27 1021.79 1022.00 1022.19 1022.45 1022.57 1022.77 1023.03 1023.19 1023.39 1023.69 1023.93 1024.02 1024.20 1024.35 1024.56 1024.88 1024.95 1025.13 1025.15 1025.36 1025.38
1019.11 1019.37 1019.74 1019.86 1020.10 1020.33 1020.42 1020.37 1020.80 1021.23 1021.28 1021.86 1022.30 1022.59 1022.91 1023.13 1023.26 1023.57 1023.79 1024.03 1024.34 1024.47 1024.66 1024.80 1024.93 1025.08 1025.20 1025.37 1025.54 1025.54 1025.62 1025.56
1019.14 1019.46 1019.59 1019.81 1020.05 1020.26 1020.41 1020.71 1021.10 1021.25 1021.69 1021.98 1022.33 1022.93 1023.31 1023.53 1023.71 1023.96 1024.17 1024.46 1024.61 1024.98 1025.26 1025.42 1025.29 1025.34 1025.56 1025.88 1025.88 1026.03 1025.85 1025.87
1019.27 1019.43 1019.65 1019.91 1020.15 1020.40 1020.53 1020.84 1021.14 1021.52 1021.92 1022.09 1022.27 1022.78 1023.25 1023.72 1024.03 1024.24 1024.42 1024.80 1025.11 1025.28 1025.49 1025.50 1025.85 1025.84 1025.91 1026.19 1026.36 1026.46 1026.08 1026.11
1019.30 1019.53 1019.74 1019.93 1020.21 1020.57 1020.87 1021.18 1021.35 1021.57 1021.92 1022.23 1022.64 1022.91 1023.40 1023.81 1024.11 1024.37 1024.70 1025.12 1025.23 1025.49 1025.66 1025.74 1025.99 1026.18 1026.44 1026.51 1026.76 1026.74 1026.52 1026.43
1019.16 1019.33 1019.61 1019.85 1020.20 1020.32 1020.80 1021.11 1021.23 1021.68 1022.05 1022.37 1022.64 1023.13 1023.52 1023.86 1024.27 1024.52 1025.00 1025.25 1025.18 1025.71 1025.95 1026.22 1026.46 1026.55 1026.84 1027.13 1027.15 1027.00 1026.84 1026.71
1019.03 1019.20 1019.58 1019.90 1020.35 1020.64 1020.89 1021.18 1021.54 1021.85 1022.17 1022.37 1022.76 1023.21 1023.68 1023.90 1024.42 1024.71 1025.06 1025.44 1025.60 1025.89 1026.27 1026.25 1026.59 1026.85 1027.26 1027.66 1027.73 1027.64 1027.36 1027.15
1018.57 1018.97 1019.40 1019.73 1020.38 1021.02 1021.33 1021.68 1021.93 1022.06 1022.28 1022.59 1022.99 1023.35 1023.73 1024.05 1024.57 1024.98 1025.33 1025.65 1025.99 1026.37 1026.70 1026.93 1027.24 1027.49 1027.69 1027.95 1028.13 1028.15 1027.97 1027.93
1018.34 1018.85 1019.14 1019.63 1020.38 1021.16 1021.65 1021.91 1022.45 1022.63 1022.49 1022.79 1023.13 1023.42 1023.88 1024.46 1024.99 1025.29 1025.52 1025.85 1026.41 1026.43 1026.58 1026.94 1027.49 1027.62 1028.14 1028.60 1028.50 1028.39 1028.34 1028.37
1017.94 1018.33 1018.80 1019.33 1019.90 1020.45 1021.08 1021.73 1022.31 1022.35 1022.67 1023.07 1023.49 1023.82 1024.18 1024.61 1025.09 1025.48 1025.84 1026.38 1026.51 1026.60 1026.69 1027.23 1027.76 1027.82 1028.15 1028.69 1029.11 1029.02 1028.71 1028.50
1017.16 1017.81 1018.63 1019.29 1019.73 1020.29 1021.11 1021.68 1022.28 1022.90 1023.22 1023.50 1023.84 1023.98 1024.36 1024.67 1025.07 1025.42 1025.92 1026.26 1026.54 1026.53 1026.56 1026.64 1027.49 1028.31 1028.10 1028.32 1028.91 1029.14 1028.97 1028.65
1017.05 1017.61 1018.17 1018.84 1019.36 1019.99 1020.45 1021.06 1022.16 1022.36 1022.69 1023.31 1024.02 1024.30 1024.53 1024.70 1024.93 1025.29 1025.66 1026.10 1026.39 1026.22 1026.66 1026.83 1027.17 1028.14 1028.50 1028.46 1028.50 1028.82 1029.19 1029.17
1016.60 1017.27 1017.95 1018.34 1018.94 1019.50 1020.17 1020.88 1021.43 1021.94 1022.68 1023.38 1024.12 1024.61 1024.74 1024.72 1025.05 1025.35 1025.45 1025.65 1025.74 1025.96 1026.19 1026.83 1027.33 1027.98 1028.36 1028.64 1028.80 1029.08 1029.04 1029.23
1016.31 1016.82 1017.30 1017.98 1018.63 1019.19 1019.58 1020.24 1021.08 1021.87 1022.80 1023.59 1024.19 1024.44 1024.75 1024.93 1024.99 1025.00 1025.01 1025.25 1025.39 1025.98 1026.10 1026.46 1027.13 1027.55 1027.88 1028.08 1028.26 1028.79 1029.01 1029.12
1015.52 1016.31 1016.95 1017.61 1018.27 1018.94 1019.18 1019.62 1020.21 1020.90 1021.81 1022.71 1023.88 1024.42 1024.62 1024.68 1024.83 1025.31 1025.57 1025.23 1025.51 1026.01 1026.34 1026.80 1027.17 1027.41 1027.77 1027.99 1027.97 1028.17 1028.40 1028.63
1015.01 1015.64 1016.29 1016.94 1017.76 1018.27 1018.73 1019.38 1019.98 1020.44 1021.01 1021.65 1022.49 1023.03 1023.54 1023.89 1023.71 1023.61 1024.55 1024.95 1024.64 1025.54 1026.08 1026.29 1026.58 1027.17 1027.60 1027.80 1027.89 1027.97 1028.14 1028.27
Wind_Speed
14 14 14 10 14 13 12 14 12 14 14 15 13 11 10 10 9 8 8 10 11 14 13 12 13 13 11 12 11 10 6 4
16 16 9 7 6 11 13 12 12 13 13 12 10 9 9 9 9 8 9 9 12 12 15 13 13 13 12 11 11 11 6 5
16 14 6 5 7 7 8 10 12 12 11 10 7 4 5 6 7 9 8 9 12 12 13 14 14 14 13 13 12 4 5 4
16 15 8 9 2 4 5 6 6 5 5 6 4 5 4 5 6 8 11 14 14 14 14 14 11 5 5 10 4 5 4 4
11 13 9 7 5 1 2 3 3 3 5 5 4 3 3 3 3 4 5 9 4 6 6 5 7 5 5 5 5 5 4 3
15 12 9 4 3 3 3 3 3 3 4 5 3 3 4 4 4 4 5 4 6 5 4 5 6 7 6 6 6 5 3 3
9 5 4 4 4 4 3 3 3 3 3 4 4 4 4 4 4 4 4 4 4 5 5 4 5 6 6 6 6 6 6 3
6 5 4 5 4 4 3 3 2 3 3 4 6 4 5 4 4 4 5 4 4 4 4 4 4 4 6 5 6 5 6 6
7 6 6 6 6 5 4 4 4 4 4 5 6 6 6 5 5 4 4 4 6 5 4 4 4 4 6 5 4 4 5 5
7 7 7 6 6 5 4 4 4 4 4 4 7 6 6 6 5 4 4 4 4 4 3 4 4 4 3 4 3 4 5 6
7 6 7 7 5 4 4 5 4 4 4 4 6 6 6 6 4 5 5 4 4 2 3 2 3 3 4 3 3 4 4 4
7 6 7 7 5 4 4 4 3 3 4 4 6 5 6 6 5 5 4 4 4 3 3 4 3 2 4 4 3 3 3 4
8 8 7 7 4 4 3 4 2 2 3 5 6 5 6 6 4 5 4 5 3 3 3 4 3 2 3 2 2 3 4 3
8 9 11 9 7 3 4 4 2 3 3 4 5 6 6 6 6 5 6 4 4 3 2 3 3 3 3 2 2 2 2 2
12 11 11 9 7 5 4 4 4 3 2 3 3 6 6 7 7 6 5 4 4 3 3 5 4 2 3 4 1 2 2 1
9 10 13 9 10 7 11 8 7 4 4 4 4 6 6 6 7 6 6 4 5 4 2 3 4 3 1 3 4 3 2 4
10 9 10 10 12 10 8 5 4 4 4 8 6 5 5 6 6 6 6 4 5 5 6 5 3 3 2 1 2 1 1 2
9 11 12 9 12 10 12 12 9 8 5 5 4 3 4 5 6 6 6 6 5 4 4 5 4 4 3 3 3 3 3 3
11 12 12 8 11 11 11 11 12 13 12 9 8 5 4 6 5 4 1 4 5 5 4 4 4 3 4 3 3 4 3 3
13 14 12 12 12 12 10 9 7 8 12 10 9 8 7 7 8 8 7 6 6 4 4 4 5 4 6 4 3 3 3 3
Wind_Direction
91 65 44 49 82 95 111 94 113 112 117 123 126 126 119 109 102 94 81 73 72 77 86 87 80 87 91 86 83 83 77 63
96 92 71 338 62 80 88 101 103 120 117 119 122 106 104 106 95 94 80 86 77 80 93 93 84 78 75 70 65 63 60 54
99 104 108 31 12 69 103 138 127 105 106 111 92 111 112 95 110 96 98 90 89 89 89 89 81 74 66 62 55 33 38 32
126 132 153 141 233 145 163 123 76 103 122 130 121 116 111 92 73 88 93 92 83 79 75 80 77 68 59 60 52 40 32 12
136 139 172 168 176 154 61 90 113 121 126 130 128 99 87 83 83 74 73 73 65 59 63 54 65 66 61 59 56 54 40 17
159 165 186 186 143 148 136 116 136 163 148 144 129 106 97 84 79 82 74 68 77 72 66 63 63 65 74 66 50 48 44 26
179 175 186 163 134 129 129 152 175 156 149 151 130 117 108 101 94 85 81 80 80 71 74 76 70 74 64 68 63 55 46 30
178 171 195 158 142 152 159 165 162 163 164 125 117 127 119 113 110 96 80 83 90 97 103 86 66 82 69 65 68 63 63 46
180 175 192 167 165 172 158 171 164 141 126 125 124 120 126 123 113 106 113 114 114 92 75 70 81 68 71 74 79 65 65 57
177 187 179 166 170 160 157 162 140 133 128 129 127 131 137 123 115 121 138 115 101 98 110 80 83 84 87 58 74 68 62 61
177 175 168 158 149 137 150 133 129 137 127 129 140 137 139 125 131 125 121 110 94 112 61 96 73 77 99 79 56 58 48 63
162 166 156 147 124 101 72 76 95 113 138 143 146 141 138 123 114 117 116 103 79 66 94 46 53 50 81 83 55 47 52 59
165 156 156 146 137 133 125 147 155 152 137 134 137 133 122 115 113 109 99 88 124 150 125 111 60 66 109 26 359 48 62 55
167 173 164 171 168 143 144 154 126 97 99 102 117 124 124 122 117 103 102 118 98 89 124 116 65 20 127 75 7 330 356 12
184 178 173 172 151 113 83 75 66 86 114 110 112 122 126 121 120 116 121 128 137 151 138 114 126 28 71 141 83 258 311 319
189 180 175 173 160 157 166 165 165 192 153 124 121 124 122 123 119 127 128 129 122 113 110 107 111 121 25 45 57 129 202 322
184 176 182 176 178 178 171 162 144 128 113 125 124 121 125 120 125 131 131 135 124 112 116 103 93 134 143 107 80 24 97 150
180 177 190 178 180 181 185 173 159 141 131 136 137 141 137 140 146 141 138 125 124 131 131 108 126 127 162 185 168 185 215 192
182 183 191 178 185 191 198 177 165 168 163 161 161 167 173 164 138 116 125 148 135 143 111 113 161 179 186 205 195 210 173 172
193 190 194 190 195 203 185 180 182 175 174 166 173 171 165 167 167 159 163 176 150 142 144 182 183 198 218 222 216 225 195 183